Flag for Germany Weather past 2 weeks in Hanau, Hesse, Germany

Now
70 °F

Partly sunny.


Feels Like: 70 °F
Forecast: 48 / 70 °F
Wind: 6 mph from East

Location: Frankfurt-M-Flughafen Airport

Current Time: Oct 2, 2014 at 7:08:38 PM

Latest Report: Oct 2, 2014 at 6:20 PM


Visibility: N/A

Pressure: 30.33 "Hg

Humidity: 60%

Dew point: 55 °F

Location of HanauLocation

Historic Weather in Hanau — Graph

°F

Hanau temperature yesterday

Maximum temperature yesterday: 72 °F (at 2:20 PM)
Minimum temperature yesterday: 54 °F (at 4:20 AM)
Average temperature yesterday: 61 °F

Past Weeks' High & Low Weather Summary

 TemperatureHumidityPressure
High77 °F (Sep 17, 5:20 PM)100% (Sep 18, 2:50 AM)30.39 "Hg (Sep 18, 2:50 AM)
Low43 °F (Sep 23, 2:50 AM)50% (Oct 2, 4:20 PM)29.86 "Hg (Sep 17, 5:20 PM)
Average60 °F85%30.13 "Hg
* Reported Sep 17 5:20 PM — Oct 2 5:50 PM, Hanau, Weather by CustomWeather, © 2014

Note: Actual official high and low records may vary slightly from our data, if they occured in-between our weather recording intervals... More about our weather records

Advertising

Hanau weather history for previous 24 hours

 ConditionsComfort  
Time TempWeatherWind HumidityBarometerVisibility
5:50 PM
Oct 2
70 °FPartly sunny.7 mph60%30.33 "HgN/A
5:20 PM72 °FPartly sunny.7 mph53%30.33 "HgN/A
4:50 PM72 °FPartly sunny.6 mph53%30.33 "HgN/A
4:20 PM72 °FPartly sunny.5 mph50%30.33 "HgN/A
3:50 PM72 °FPartly sunny.5 mph53%30.33 "HgN/A
3:20 PM72 °FPartly sunny.5 mph57%30.36 "HgN/A
2:50 PM70 °FPartly sunny.5 mph64%30.36 "HgN/A
2:20 PM70 °FPartly sunny.6 mph60%30.36 "HgN/A
1:50 PM70 °FPartly sunny.3 mph64%30.36 "HgN/A
1:20 PM70 °FPartly sunny.5 mph69%30.39 "HgN/A
12:50 PM68 °FPartly sunny.5 mph73%30.39 "HgN/A
12:20 PM66 °FPartly sunny.5 mph78%30.39 "HgN/A
11:50 AM64 °FPartly sunny.5 mph83%30.39 "HgN/A
11:20 AM63 °FPartly sunny.3 mph83%30.39 "HgN/A
10:50 AM61 °FSunny.3 mph88%30.39 "Hg10 mi
10:20 AM59 °FSunny.6 mph94%30.39 "Hg10 mi
9:50 AM57 °FPassing clouds.5 mph94%30.39 "HgN/A
9:20 AM55 °FClear.3 mph100%30.39 "Hg6 mi
8:50 AM54 °FClear.3 mph100%30.39 "Hg6 mi
8:20 AM54 °FPassing clouds.3 mph100%30.39 "Hg5 mi
7:50 AM54 °FPassing clouds.2 mph100%30.39 "Hg4 mi
7:20 AM54 °FPassing clouds.1 mph100%30.39 "Hg4 mi
6:50 AM54 °FFog.2 mph100%30.36 "Hg4 mi
6:20 AM54 °FFog.2 mph100%30.36 "Hg4 mi
5:50 AM54 °FFog.2 mph100%30.36 "Hg4 mi
5:20 AM54 °FFog.2 mph100%30.36 "Hg3 mi
4:50 AM54 °FSnow. Overcast.1 mph100%30.36 "Hg2 mi
4:20 AM54 °FCool.2 mph100%30.36 "Hg1 mi
3:50 AM54 °FLight fog.3 mph100%30.36 "Hg0 mi
3:20 AM54 °FLight fog.2 mph100%30.36 "Hg1 mi
2:50 AM54 °FLight fog.3 mph100%30.36 "HgN/A
2:20 AM54 °FLight fog.2 mph100%30.36 "HgN/A
1:50 AM54 °FLight fog.2 mph100%30.36 "HgN/A
1:20 AM54 °FLight fog.2 mph100%30.36 "HgN/A
12:50 AM55 °FLight fog.2 mph100%30.36 "HgN/A
12:20 AM55 °FLight fog.1 mph100%30.36 "HgN/A
11:50 PM
Oct 1
55 °FLight fog.2 mph100%30.36 "HgN/A
11:20 PM57 °FLight fog.2 mph100%30.33 "HgN/A
10:50 PM57 °FLight fog.3 mph94%30.33 "HgN/A
10:20 PM59 °FLight fog.1 mph94%30.33 "HgN/A
9:50 PM61 °FLight fog.2 mph94%30.33 "HgN/A
9:20 PM61 °FLight fog.1 mph94%30.33 "HgN/A
8:50 PM63 °FLight fog.1 mph88%30.33 "HgN/A
8:20 PM64 °FLight fog.1 mph83%30.33 "HgN/A
7:50 PM64 °FPassing clouds.1 mph78%30.30 "HgN/A
7:20 PM66 °FPassing clouds.2 mph78%30.30 "HgN/A
Weather by CustomWeather, © 2014

See weather overviewHow to use our weather pages